Year,Month,Day,Hour,Minute,Value (Times are PST for temperature in C)
2016,09,28,00,01,11.40
2016,09,28,00,02,11.40
2016,09,28,00,03,11.40
2016,09,28,00,04,11.40
2016,09,28,00,06,11.40
2016,09,28,00,07,11.40
2016,09,28,00,09,11.40
2016,09,28,00,10,11.40
2016,09,28,00,12,11.40
2016,09,28,00,13,11.40
2016,09,28,00,14,11.40
2016,09,28,00,16,11.30
2016,09,28,00,17,11.30
2016,09,28,00,18,11.30
2016,09,28,00,19,11.30
2016,09,28,00,21,11.30
2016,09,28,00,22,11.30
2016,09,28,00,23,11.20
2016,09,28,00,24,11.20
2016,09,28,00,26,11.20
2016,09,28,00,27,11.20
2016,09,28,00,28,11.20
2016,09,28,00,29,11.10
2016,09,28,00,31,11.10
2016,09,28,00,32,11.10
2016,09,28,00,33,11.10
2016,09,28,00,34,11.10
2016,09,28,00,36,11.10
2016,09,28,00,37,11.10
2016,09,28,00,38,11.10
2016,09,28,00,39,11.10
2016,09,28,00,41,11.10
2016,09,28,00,42,10.90
2016,09,28,00,43,10.90
2016,09,28,00,44,10.90
2016,09,28,00,46,10.90
2016,09,28,00,47,10.90
2016,09,28,00,48,10.90
2016,09,28,00,49,10.90
2016,09,28,00,51,10.90
2016,09,28,00,52,10.90
2016,09,28,00,53,10.90
2016,09,28,00,54,10.90
2016,09,28,00,56,10.90
2016,09,28,00,57,10.90
2016,09,28,00,58,10.90
2016,09,28,00,59,10.90
2016,09,28,01,01,10.90
2016,09,28,01,02,10.90
2016,09,28,01,03,10.90
2016,09,28,01,04,10.90
2016,09,28,01,06,10.90
2016,09,28,01,07,10.90
2016,09,28,01,08,10.80
2016,09,28,01,09,10.80
2016,09,28,01,10,10.80
2016,09,28,01,11,10.80
2016,09,28,01,12,10.80
2016,09,28,01,13,10.80
2016,09,28,01,14,10.70
2016,09,28,01,15,10.70
2016,09,28,01,16,10.70
2016,09,28,01,17,10.70
2016,09,28,01,18,10.70
2016,09,28,01,19,10.70
2016,09,28,01,20,10.70
2016,09,28,01,21,10.70
2016,09,28,01,22,10.60
2016,09,28,01,23,10.70
2016,09,28,01,24,10.70
2016,09,28,01,25,10.70
2016,09,28,01,26,10.70
2016,09,28,01,27,10.70
2016,09,28,01,28,10.70
2016,09,28,01,29,10.70
2016,09,28,01,30,10.70
2016,09,28,01,31,10.70
2016,09,28,01,32,10.70
2016,09,28,01,33,10.70
2016,09,28,01,34,10.70
2016,09,28,01,35,10.70
2016,09,28,01,36,10.70
2016,09,28,01,37,10.70
2016,09,28,01,38,10.70
2016,09,28,01,39,10.70
2016,09,28,01,40,10.60
2016,09,28,01,41,10.60
2016,09,28,01,42,10.60
2016,09,28,01,43,10.60
2016,09,28,01,44,10.60
2016,09,28,01,45,10.60
2016,09,28,01,46,10.60
2016,09,28,01,47,10.60
2016,09,28,01,48,10.60
2016,09,28,01,49,10.60
2016,09,28,01,50,10.60
2016,09,28,01,51,10.40
2016,09,28,01,52,10.40
2016,09,28,01,53,10.40
2016,09,28,01,54,10.40
2016,09,28,01,55,10.40
2016,09,28,01,56,10.40
2016,09,28,01,57,10.40
2016,09,28,01,58,10.40
2016,09,28,01,59,10.40
2016,09,28,02,00,10.40
2016,09,28,02,01,10.40
2016,09,28,02,02,10.40
2016,09,28,02,03,10.40
2016,09,28,02,04,10.40
2016,09,28,02,05,10.40
2016,09,28,02,06,10.30
2016,09,28,02,07,10.30
2016,09,28,02,08,10.30
2016,09,28,02,09,10.30
2016,09,28,02,10,10.30
2016,09,28,02,11,10.30
2016,09,28,02,12,10.20
2016,09,28,02,13,10.20
2016,09,28,02,14,10.20
2016,09,28,02,15,10.20
2016,09,28,02,16,10.20
2016,09,28,02,17,10.10
2016,09,28,02,18,10.10
2016,09,28,02,19,10.10
2016,09,28,02,20,10.10
2016,09,28,02,21,10.10
2016,09,28,02,22,10.10
2016,09,28,02,23,10.10
2016,09,28,02,24,10.10
2016,09,28,02,25,10.10
2016,09,28,02,26,10.10
2016,09,28,02,27,10.10
2016,09,28,02,28,10.10
2016,09,28,02,29,10.10
2016,09,28,02,30,10.10
2016,09,28,02,31,10.10
2016,09,28,02,32,10.10
2016,09,28,02,33,10.10
2016,09,28,02,34,10.10
2016,09,28,02,35,10.10
2016,09,28,02,36,10.10
2016,09,28,02,37,10.10
2016,09,28,02,38,10.10
2016,09,28,02,39,10.20
2016,09,28,02,41,10.20
2016,09,28,02,42,10.20
2016,09,28,02,43,10.30
2016,09,28,02,44,10.30
2016,09,28,02,46,10.30
2016,09,28,02,47,10.40
2016,09,28,02,48,10.40
2016,09,28,02,49,10.40
2016,09,28,02,51,10.40
2016,09,28,02,52,10.40
2016,09,28,02,53,10.40
2016,09,28,02,54,10.40
2016,09,28,02,56,10.40
2016,09,28,02,57,10.40
2016,09,28,02,58,10.40
2016,09,28,02,59,10.40
2016,09,28,03,01,10.40
2016,09,28,03,02,10.40
2016,09,28,03,03,10.40
2016,09,28,03,04,10.30
2016,09,28,03,06,10.30
2016,09,28,03,07,10.30
2016,09,28,03,08,10.30
2016,09,28,03,09,10.20
2016,09,28,03,11,10.20
2016,09,28,03,12,10.20
2016,09,28,03,13,10.20
2016,09,28,03,14,10.20
2016,09,28,03,16,10.20
2016,09,28,03,17,10.20
2016,09,28,03,18,10.20
2016,09,28,03,19,10.20
2016,09,28,03,21,10.20
2016,09,28,03,22,10.20
2016,09,28,03,23,10.20
2016,09,28,03,24,10.20
2016,09,28,03,26,10.20
2016,09,28,03,27,10.20
2016,09,28,03,28,10.20
2016,09,28,03,29,10.20
2016,09,28,03,31,10.20
2016,09,28,03,32,10.20
2016,09,28,03,33,10.30
2016,09,28,03,34,10.30
2016,09,28,03,36,10.30
2016,09,28,03,37,10.30
2016,09,28,03,38,10.30
2016,09,28,03,39,10.30
2016,09,28,03,41,10.30
2016,09,28,03,42,10.20
2016,09,28,03,43,10.20
2016,09,28,03,44,10.20
2016,09,28,03,46,10.20
2016,09,28,03,47,10.20
2016,09,28,03,48,10.20
2016,09,28,03,49,10.20
2016,09,28,03,51,10.20
2016,09,28,03,52,10.20
2016,09,28,03,53,10.20
2016,09,28,03,54,10.20
2016,09,28,03,56,10.20
2016,09,28,03,57,10.20
2016,09,28,03,58,10.20
2016,09,28,03,59,10.30
2016,09,28,04,00,10.30
2016,09,28,04,01,10.30
2016,09,28,04,02,10.30
2016,09,28,04,03,10.30
2016,09,28,04,04,10.40
2016,09,28,04,06,10.40
2016,09,28,04,07,10.40
2016,09,28,04,08,10.40
2016,09,28,04,09,10.40
2016,09,28,04,10,10.40
2016,09,28,04,11,10.40
2016,09,28,04,12,10.40
2016,09,28,04,13,10.40
2016,09,28,04,14,10.60
2016,09,28,04,15,10.60
2016,09,28,04,16,10.60
2016,09,28,04,17,10.60
2016,09,28,04,18,10.60
2016,09,28,04,19,10.60
2016,09,28,04,20,10.60
2016,09,28,04,21,10.60
2016,09,28,04,22,10.60
2016,09,28,04,23,10.60
2016,09,28,04,24,10.60
2016,09,28,04,25,10.60
2016,09,28,04,26,10.60
2016,09,28,04,27,10.60
2016,09,28,04,28,10.60
2016,09,28,04,29,10.60
2016,09,28,04,30,10.40
2016,09,28,04,31,10.40
2016,09,28,04,32,10.40
2016,09,28,04,33,10.40
2016,09,28,04,34,10.40
2016,09,28,04,35,10.40
2016,09,28,04,36,10.40
2016,09,28,04,37,10.40
2016,09,28,04,38,10.40
2016,09,28,04,39,10.40
2016,09,28,04,40,10.40
2016,09,28,04,41,10.40
2016,09,28,04,42,10.40
2016,09,28,04,43,10.40
2016,09,28,04,44,10.30
2016,09,28,04,45,10.30
2016,09,28,04,46,10.30
2016,09,28,04,47,10.30
2016,09,28,04,48,10.30
2016,09,28,04,49,10.30
2016,09,28,04,50,10.20
2016,09,28,04,51,10.20
2016,09,28,04,52,10.20
2016,09,28,04,53,10.20
2016,09,28,04,54,10.20
2016,09,28,04,55,10.20
2016,09,28,04,56,10.20
2016,09,28,04,57,10.10
2016,09,28,04,58,10.10
2016,09,28,04,59,10.10
2016,09,28,05,00,10.10
2016,09,28,05,01,10.10
2016,09,28,05,02,10.10
2016,09,28,05,03,10.10
2016,09,28,05,04,10.10
2016,09,28,05,05,10.10
2016,09,28,05,06,10.10
2016,09,28,05,07,10.10
2016,09,28,05,08,10.10
2016,09,28,05,09,9.90
2016,09,28,05,10,9.90
2016,09,28,05,11,9.90
2016,09,28,05,12,9.90
2016,09,28,05,13,9.90
2016,09,28,05,14,9.90
2016,09,28,05,15,9.90
2016,09,28,05,16,9.80
2016,09,28,05,17,9.80
2016,09,28,05,18,9.80
2016,09,28,05,19,9.80
2016,09,28,05,20,9.70
2016,09,28,05,21,9.70
2016,09,28,05,22,9.70
2016,09,28,05,23,9.70
2016,09,28,05,24,9.70
2016,09,28,05,26,9.70
2016,09,28,05,27,9.70
2016,09,28,05,28,9.70
2016,09,28,05,29,9.70
2016,09,28,05,31,9.60
2016,09,28,05,32,9.60
2016,09,28,05,33,9.60
2016,09,28,05,34,9.50
2016,09,28,05,36,9.50
2016,09,28,05,37,9.50
2016,09,28,05,38,9.40
2016,09,28,05,39,9.40
2016,09,28,05,41,9.40
2016,09,28,05,42,9.40
2016,09,28,05,43,9.40
2016,09,28,05,44,9.40
2016,09,28,05,46,9.40
2016,09,28,05,47,9.40
2016,09,28,05,48,9.40
2016,09,28,05,49,9.30
2016,09,28,05,51,9.30
2016,09,28,05,52,9.30
2016,09,28,05,53,9.30
2016,09,28,05,54,9.30
2016,09,28,05,56,9.20
2016,09,28,05,57,9.20
2016,09,28,05,58,9.20
2016,09,28,05,59,9.20
2016,09,28,06,01,9.20
2016,09,28,06,02,9.20
2016,09,28,06,03,9.20
2016,09,28,06,04,9.10
2016,09,28,06,06,9.10
2016,09,28,06,07,9.10
2016,09,28,06,08,9.00
2016,09,28,17,01,17.20
2016,09,28,17,02,17.20
2016,09,28,17,03,17.10
2016,09,28,17,04,17.10
2016,09,28,17,05,17.10
2016,09,28,17,06,17.10
2016,09,28,17,07,17.10
2016,09,28,17,08,17.00
2016,09,28,17,09,17.00
2016,09,28,17,10,17.00
2016,09,28,17,11,16.90
2016,09,28,17,12,16.90
2016,09,28,17,13,16.90
2016,09,28,17,14,16.90
2016,09,28,17,15,16.90
2016,09,28,17,16,16.90
2016,09,28,17,17,16.80
2016,09,28,17,19,16.70
2016,09,28,17,21,16.70
2016,09,28,17,22,16.70
2016,09,28,17,23,16.60
2016,09,28,17,24,16.40
2016,09,28,17,26,16.40
2016,09,28,17,27,16.40
2016,09,28,17,28,16.40
2016,09,28,17,29,16.30
2016,09,28,17,31,16.30
2016,09,28,17,32,16.20
2016,09,28,17,33,16.20
2016,09,28,17,34,16.20
2016,09,28,17,36,16.10
2016,09,28,17,37,16.10
2016,09,28,17,38,16.10
2016,09,28,17,39,16.10
2016,09,28,17,41,16.10
2016,09,28,17,42,16.10
2016,09,28,17,43,16.10
2016,09,28,17,44,16.10
2016,09,28,17,46,15.90
2016,09,28,17,47,15.90
2016,09,28,17,48,15.80
2016,09,28,17,49,15.80
2016,09,28,17,51,15.80
2016,09,28,17,52,15.70
2016,09,28,17,53,15.60
2016,09,28,17,54,15.50
2016,09,28,17,56,15.40
2016,09,28,17,57,15.30
2016,09,28,17,58,15.30
2016,09,28,17,59,15.30
2016,09,28,18,01,15.10
2016,09,28,18,02,15.00
2016,09,28,18,03,15.00
2016,09,28,18,04,14.90
2016,09,28,18,06,14.70
2016,09,28,18,07,14.60
2016,09,28,18,08,14.60
2016,09,28,18,09,14.50
2016,09,28,18,11,14.30
2016,09,28,18,12,14.20
2016,09,28,18,13,14.20
2016,09,28,18,14,14.10
2016,09,28,18,16,14.00
2016,09,28,18,17,13.90
2016,09,28,18,18,13.90
2016,09,28,18,19,13.80
2016,09,28,18,21,13.70
2016,09,28,18,22,13.70
2016,09,28,18,23,13.70
2016,09,28,18,24,13.70
2016,09,28,18,26,13.60
2016,09,28,18,27,13.60
2016,09,28,18,28,13.60
2016,09,28,18,29,13.60
2016,09,28,18,31,13.60
2016,09,28,19,26,12.90
2016,09,28,19,27,12.80
2016,09,28,19,28,12.80
2016,09,28,19,29,12.80
2016,09,28,19,30,12.80
2016,09,28,19,31,12.80
2016,09,28,19,32,12.80
2016,09,28,19,33,12.70
2016,09,28,19,34,12.70
2016,09,28,19,35,12.70
2016,09,28,19,36,12.60
2016,09,28,19,37,12.60
2016,09,28,19,38,12.60
2016,09,28,19,39,12.60
2016,09,28,19,41,12.50
2016,09,28,19,42,12.50
2016,09,28,19,43,12.50
2016,09,28,19,44,12.40
2016,09,28,19,46,12.40
2016,09,28,19,47,12.40
2016,09,28,19,48,12.40
2016,09,28,19,49,12.30
2016,09,28,19,51,12.30
2016,09,28,19,52,12.30
2016,09,28,19,53,12.30
2016,09,28,19,54,12.30
2016,09,28,19,56,12.30
2016,09,28,19,57,12.30
2016,09,28,19,58,12.20
2016,09,28,19,59,12.20
2016,09,28,20,01,12.20
2016,09,28,20,02,12.20
2016,09,28,20,03,12.20
2016,09,28,20,04,12.20
2016,09,28,20,06,12.10
2016,09,28,20,07,12.10
2016,09,28,20,08,12.10
2016,09,28,20,09,12.00
2016,09,28,20,11,12.00
2016,09,28,20,12,12.00
2016,09,28,20,13,11.90
2016,09,28,20,14,11.90
2016,09,28,20,16,11.80
2016,09,28,20,17,11.80
2016,09,28,20,18,11.80
2016,09,28,20,19,11.80
2016,09,28,20,21,11.80
2016,09,28,20,22,11.80
2016,09,28,20,23,11.70
2016,09,28,20,24,11.70
2016,09,28,20,26,11.60
2016,09,28,20,27,11.60
2016,09,28,20,28,11.60
2016,09,28,20,29,11.60
2016,09,28,20,31,11.60
2016,09,28,20,32,11.60
2016,09,28,20,33,11.40
2016,09,28,20,34,11.40
2016,09,28,20,36,11.40
2016,09,28,20,37,11.40
2016,09,28,20,38,11.30
2016,09,28,20,39,11.30
2016,09,28,20,41,11.30
2016,09,28,20,42,11.20
2016,09,28,20,43,11.20
2016,09,28,20,44,11.20
2016,09,28,20,46,11.10
2016,09,28,20,47,11.10
2016,09,28,20,48,11.10
2016,09,28,20,49,11.10
2016,09,28,20,51,11.10
2016,09,28,20,52,10.90
2016,09,28,20,53,10.90
2016,09,28,20,54,10.90
2016,09,28,20,55,10.90
2016,09,28,20,56,10.90
2016,09,28,20,57,10.90
2016,09,28,20,58,10.90
2016,09,28,20,59,10.90
2016,09,28,21,00,10.80
2016,09,28,21,01,10.80
2016,09,28,21,02,10.80
2016,09,28,21,03,10.80
2016,09,28,21,04,10.80
2016,09,28,21,06,10.80
2016,09,28,21,07,10.80
2016,09,28,21,08,10.80
2016,09,28,21,09,10.80
2016,09,28,21,10,10.80
2016,09,28,21,11,10.80
2016,09,28,21,12,10.80
2016,09,28,21,13,10.80
2016,09,28,21,14,10.90
2016,09,28,21,15,10.90
2016,09,28,21,16,10.90
2016,09,28,21,17,10.90
2016,09,28,21,18,10.90
2016,09,28,21,19,10.90
2016,09,28,21,20,10.90
2016,09,28,21,21,10.90
2016,09,28,21,22,10.90
2016,09,28,21,23,10.90
2016,09,28,21,24,10.90
2016,09,28,21,25,10.90
2016,09,28,21,26,10.90
2016,09,28,21,27,10.90
2016,09,28,21,28,10.90
2016,09,28,21,29,10.90
2016,09,28,21,30,10.90
2016,09,28,21,31,10.90
2016,09,28,21,32,10.90
2016,09,28,21,33,10.90
2016,09,28,21,34,10.90
2016,09,28,21,35,10.90
2016,09,28,21,36,10.90
2016,09,28,21,37,10.90
2016,09,28,21,38,10.90
2016,09,28,21,39,10.90
2016,09,28,21,40,10.90
2016,09,28,21,41,10.80
2016,09,28,21,42,10.80
2016,09,28,21,43,10.80
2016,09,28,21,44,10.80
2016,09,28,21,45,10.70
2016,09,28,21,46,10.70
2016,09,28,21,47,10.70
2016,09,28,21,48,10.70
2016,09,28,21,49,10.70
2016,09,28,21,50,10.60
2016,09,28,21,51,10.60
2016,09,28,21,52,10.60
2016,09,28,21,53,10.60
2016,09,28,21,54,10.60
2016,09,28,21,55,10.60
2016,09,28,21,56,10.60
2016,09,28,21,57,10.60
2016,09,28,21,58,10.60
2016,09,28,21,59,10.60
2016,09,28,22,00,10.60
2016,09,28,22,01,10.60
2016,09,28,22,02,10.60
2016,09,28,22,03,10.60
2016,09,28,22,04,10.60
2016,09,28,22,05,10.60
2016,09,28,22,06,10.60
2016,09,28,22,07,10.70
2016,09,28,22,08,10.70
2016,09,28,22,09,10.80
2016,09,28,22,10,10.90
2016,09,28,22,11,10.90
2016,09,28,22,12,10.90
2016,09,28,22,13,10.90
2016,09,28,22,14,11.10
2016,09,28,22,15,11.10
2016,09,28,22,16,11.10
2016,09,28,22,17,11.20
2016,09,28,22,18,11.20
2016,09,28,22,19,11.20
2016,09,28,22,20,11.20
2016,09,28,22,21,11.30
2016,09,28,22,22,11.30
2016,09,28,22,23,11.30
2016,09,28,22,24,11.30
2016,09,28,22,25,11.30
2016,09,28,22,26,11.20
2016,09,28,22,27,11.20
2016,09,28,22,29,11.10
2016,09,28,22,31,11.10
2016,09,28,22,32,11.10
2016,09,28,22,33,11.10
2016,09,28,22,34,10.90
2016,09,28,22,36,10.90
2016,09,28,22,37,10.90
2016,09,28,22,38,10.80
2016,09,28,22,39,10.80
2016,09,28,22,41,10.70
2016,09,28,22,42,10.60
2016,09,28,22,43,10.60
2016,09,28,22,44,10.60
2016,09,28,22,46,10.60
2016,09,28,22,47,10.40
2016,09,28,22,48,10.40
2016,09,28,22,49,10.40
2016,09,28,22,51,10.40
2016,09,28,22,52,10.40
2016,09,28,22,53,10.30
2016,09,28,22,54,10.30
2016,09,28,22,56,10.30
2016,09,28,22,57,10.30
2016,09,28,22,58,10.20
2016,09,28,22,59,10.20
2016,09,28,23,01,10.20
2016,09,28,23,02,10.20
2016,09,28,23,03,10.10
2016,09,28,23,04,10.10
2016,09,28,23,06,10.10
2016,09,28,23,07,10.10
2016,09,28,23,08,10.10
2016,09,28,23,09,10.10
2016,09,28,23,11,9.90
2016,09,28,23,12,9.90
2016,09,28,23,13,9.90
2016,09,28,23,14,9.90
2016,09,28,23,16,9.90
2016,09,28,23,17,9.90
2016,09,28,23,18,9.90
2016,09,28,23,19,9.90
2016,09,28,23,21,9.90
2016,09,28,23,22,9.90
2016,09,28,23,23,9.90
2016,09,28,23,24,9.90
2016,09,28,23,26,9.80
2016,09,28,23,27,9.80
2016,09,28,23,28,9.80
2016,09,28,23,29,9.70
2016,09,28,23,31,9.70
2016,09,28,23,32,9.70
2016,09,28,23,33,9.70
2016,09,28,23,34,9.70
2016,09,28,23,36,9.70
2016,09,28,23,37,9.70
2016,09,28,23,38,9.70
2016,09,28,23,39,9.70
2016,09,28,23,41,9.60
2016,09,28,23,42,9.60
2016,09,28,23,43,9.60
2016,09,28,23,44,9.60
2016,09,28,23,45,9.60
2016,09,28,23,46,9.60
2016,09,28,23,47,9.60
2016,09,28,23,48,9.60
2016,09,28,23,49,9.60
2016,09,28,23,50,9.60
2016,09,28,23,51,9.60
2016,09,28,23,52,9.60
2016,09,28,23,53,9.60
2016,09,28,23,54,9.60
2016,09,28,23,55,9.60
2016,09,28,23,56,9.60
2016,09,28,23,57,9.60
2016,09,28,23,58,9.60
2016,09,28,23,59,9.60
